Location: Huberhof
(49.2050°N, 7.4980°E)
Time: 05:21:09
(UTC+00:00)

ERS-2 - Pass Details

Date: 29 October 2020
Orbit: 493 x 498 km, 98.6° (Epoch: 25 November)

Event Time Altitude Azimuth Distance (km) Brightness Sun altitude
Rises 17:10:56 0° 15° (NNE) 2,589 5.5 -9.9°
Reaches altitude 10° 17:13:01 10° 16° (NNE) 1,702 4.6 -10.3°
Maximum altitude 17:16:41 85° 103° (ESE) 503 2.0 -10.9°
Drops below altitude 10° 17:20:19 10° 194° (SSW) 1,688 5.1 -11.5°
Sets 17:22:23 0° 195° (SSW) 2,566 6.1 -11.8°
